Location: ??????????
(54.7560°N, 39.1389°E)
Time: 04:17:27
(UTC+00:00)

USA 229 - Pass Details

Date: 19 May 2025
Orbit: 872 x 1339 km, 63.4° (Epoch: 17 June)

Event Time Altitude Azimuth Distance (km) Brightness Sun altitude
Exits shadow 21:33:28 19° 208° (SSW) 2,096 4.7 -15.2°
Maximum altitude 21:38:02 66° 131° (SE) 1,093 3.6 -15.2°
Drops below altitude 10° 21:44:52 10° 51° (NE) 2,956 6.7 -15.1°
Sets 21:47:43 0° 49° (NE) 3,989 7.5 -15.0°
